DW5572 Weather Reports


time (UTC)temp
C
wind
direction
speed
KPH
gust
KPH
rain 1hr
cm
rain 24hr
cm
rain mn
cm
humidity
%
barometer
mb
20260507030829 6 155 0.0 1.6 0.00 2.03 2.03 93 1008.8
20260507030323 6 155 0.0 3.2 0.00 2.03 2.03 93 1008.9
20260507025818 6 155 0.0 3.2 0.00 2.03 2.03 93 1008.8
20260507025312 6 155 0.0 0.0 0.00 2.03 2.03 93 1008.9
20260507025028 6 155 0.0 0.0 0.00 2.03 2.03 93 1008.9
20260507024300 6 155 0.0 3.2 0.00 2.03 2.03 92 1008.9
20260507024026 6 155 0.0 3.2 0.00 2.03 2.03 92 1008.9
20260507023301 6 15 0.0 0.0 0.00 2.03 2.03 92 1008.9
20260507023025 6 13 0.0 0.0 0.00 2.03 2.03 92 1008.9
20260507022301 6 14 0.0 0.0 0.00 2.03 2.03 92 1008.9
20260507021801 6 14 0.0 0.0 0.00 2.03 2.03 92 1009.0
20260507021258 6 14 0.0 0.0 0.03 2.03 2.03 92 1009.0
20260507020759 6 14 0.0 0.0 0.03 2.03 2.03 92 1009.1
20260507020259 6 14 0.0 0.0 0.03 2.03 2.03 92 1009.2
20260507015755 6 14 0.0 0.0 0.03 2.03 2.03 92 1009.2
20260507015257 6 14 0.0 0.0 0.05 2.03 2.03 92 1009.3
20260507014755 6 14 0.0 0.0 0.05 2.03 2.03 92 1009.3
20260507014257 6 14 0.0 0.0 0.05 2.03 2.03 92 1009.2
20260507013757 6 14 0.0 0.0 0.08 2.03 2.03 92 1009.1
20260507013255 6 14 0.0 0.0 0.08 2.03 2.03 92 1009.1
20260507012755 6 14 0.0 0.0 0.08 2.03 2.03 92 1009.0
20260507012257 6 14 0.0 0.0 0.08 2.03 2.03 92 1009.0
20260507012013 6 14 0.0 0.0 0.10 2.03 2.03 92 1009.0
20260507011513 6 14 0.0 0.0 0.08 2.01 2.01 92 1009.0
20260507010748 6 14 0.0 0.0 0.08 2.01 2.01 92 1009.0
20260507010246 6 14 0.0 0.0 0.08 2.01 2.01 92 1008.9
20260507005745 6 14 0.0 0.0 0.08 2.01 2.01 92 1008.9
20260507005508 6 14 0.0 1.6 0.05 1.98 1.98 92 1008.9
20260507004740 6 14 0.0 1.6 0.05 1.98 1.98 92 1008.8
20260507004237 6 14 0.0 3.2 0.05 1.98 1.98 92 1008.8
20260507003737 6 14 0.0 3.2 0.03 1.96 1.96 92 1008.8
20260507003238 6 21 1.6 3.2 0.03 1.96 1.96 92 1008.7
20260507002736 6 22 0.0 3.2 0.03 1.96 1.96 92 1008.7
20260507002234 6 14 1.6 3.2 0.03 1.96 1.96 92 1008.6
20260507001959 6 12 1.6 4.8 0.03 1.93 1.93 92 1008.6
20260507001235 6 28 1.6 4.8 0.03 1.93 1.93 92 1008.5
20260507000733 6 9 1.6 3.2 0.03 1.93 1.93 92 1008.4
20260507000454 6 214 3.2 4.8 0.03 1.93 1.93 92 1008.3
20260506235731 6 351 3.2 6.4 0.03 1.93 1.93 92 1008.2
20260506235232 6 18 4.8 8.0 0.05 1.93 1.93 92 1007.9
20260506234731 6 9 4.8 8.0 0.05 1.93 1.93 92 1007.6
20260506234229 6 23 3.2 8.0 0.05 1.93 1.93 92 1007.7
20260506233731 6 25 4.8 11.3 0.05 1.93 1.93 92 1007.7
20260506233229 6 15 6.4 12.9 0.08 1.93 1.93 92 1007.7
20260506232730 6 15 8.0 12.9 0.08 1.93 1.93 92 1007.7
20260506232222 6 10 8.0 12.9 0.08 1.93 1.93 92 1007.6
20260506231719 6 20 8.0 14.5 0.08 1.91 1.91 92 1007.5
20260506231220 6 18 8.0 14.5 0.10 1.91 1.91 92 1007.3
20260506230719 6 30 8.0 14.5 0.10 1.91 1.91 92 1007.2
20260506230218 6 39 8.0 16.1 0.10 1.91 1.91 92 1007.3
20260506225718 6 38 9.7 17.7 0.10 1.91 1.91 92 1007.4
20260506225221 6 348 9.7 19.3 0.08 1.88 1.88 92 1007.3
20260506224718 6 16 9.7 19.3 0.08 1.88 1.88 92 1007.4
20260506224217 6 9 11.3 22.5 0.10 1.88 1.88 92 1007.2
20260506223718 6 38 12.9 22.5 0.10 1.88 1.88 92 1007.1
20260506223217 6 10 12.9 22.5 0.08 1.85 1.85 92 1007.0
20260506222717 6 47 12.9 20.9 0.08 1.85 1.85 92 1006.9
20260506222438 6 21 14.5 22.5 0.08 1.85 1.85 92 1007.0
20260506221718 6 33 12.9 22.5 0.05 1.85 1.83 92 1006.9
20260506221217 6 35 11.3 22.5 0.03 1.83 1.80 92 1006.9
20260506220717 6 27 11.3 20.9 0.03 1.83 1.80 92 1007.0
20260506220213 6 42 12.9 20.9 0.05 1.83 1.80 92 1007.0
20260506215713 6 32 12.9 20.9 0.05 1.83 1.80 92 1006.9
20260506215214 6 44 12.9 19.3 0.05 1.83 1.80 92 1006.8
20260506214938 6 30 12.9 20.9 0.05 1.83 1.80 92 1006.8
20260506214213 6 19 12.9 22.5 0.03 1.80 1.78 92 1006.7
20260506213712 6 36 14.5 22.5 0.03 1.80 1.78 92 1006.6
20260506213211 6 24 12.9 22.5 0.03 1.80 1.78 92 1006.7
20260506212709 6 42 12.9 19.3 0.03 1.80 1.78 92 1006.7
20260506212211 6 24 12.9 19.3 0.03 1.80 1.78 92 1006.6
20260506211932 6 26 11.3 19.3 0.03 1.80 1.78 92 1006.6
20260506211210 6 20 11.3 17.7 0.03 1.80 1.78 92 1006.6
20260506210710 6 15 12.9 20.9 0.03 1.80 1.78 92 1006.6
20260506210209 6 32 11.3 20.9 0.00 1.78 1.75 92 1006.5
20260506205940 6 21 11.3 16.1 0.03 1.78 1.75 92 1006.5
20260506205210 6 28 11.3 20.9 0.03 1.78 1.75 92 1006.5
20260506204710 6 19 11.3 20.9 0.03 1.78 1.75 92 1006.5
20260506204209 7 26 11.3 19.3 0.03 1.78 1.75 92 1006.5
20260506203709 6 46 11.3 19.3 0.03 1.78 1.75 92 1006.4
20260506203436 6 9 11.3 19.3 0.03 1.78 1.75 92 1006.5
20260506202709 6 19 11.3 20.9 0.03 1.78 1.75 92 1006.4
20260506202210 6 10 9.7 20.9 0.03 1.78 1.75 92 1006.5
20260506201935 7 343 8.0 16.1 0.03 1.78 1.75 92 1006.4
20260506201209 7 26 9.7 16.1 0.03 1.78 1.75 92 1006.3
20260506200711 7 39 9.7 16.1 0.05 1.78 1.75 92 1006.3
20260506200209 7 44 9.7 16.1 0.05 1.80 1.75 92 1006.3
20260506195709 7 25 8.0 16.1 0.03 1.78 1.73 91 1006.3
20260506195209 7 9 9.7 17.7 0.03 1.80 1.73 91 1006.5
20260506194713 7 25 9.7 17.7 0.05 1.80 1.73 92 1006.5
20260506194212 7 12 9.7 17.7 0.08 1.83 1.73 92 1006.4
20260506193707 7 47 11.3 17.7 0.08 1.83 1.73 92 1006.6
20260506193158 7 28 12.9 24.1 0.08 1.83 1.73 92 1006.6
20260506192653 7 34 11.3 24.1 0.08 1.85 1.73 92 1006.6
20260506192153 7 12 11.3 17.7 0.08 1.93 1.73 92 1006.5
20260506191911 7 43 11.3 22.5 0.08 1.96 1.73 92 1006.6
20260506191153 6 19 12.9 22.5 0.10 1.96 1.73 92 1006.6
20260506190651 6 22 14.5 20.9 0.08 1.93 1.70 92 1006.6
20260506190153 6 39 12.9 20.9 0.08 1.93 1.70 91 1006.6
20260506185649 6 31 12.9 25.7 0.08 1.93 1.70 92 1006.8
20260506185409 6 46 14.5 25.7 0.08 1.93 1.70 92 1006.6
20260506184651 6 24 14.5 27.4 0.08 1.91 1.68 91 1006.7
20260506184150 6 323 16.1 27.4 0.05 1.88 1.65 91 1006.7
20260506183922 6 32 14.5 24.1 0.05 1.88 1.65 92 1006.6
20260506183150 6 9 12.9 22.5 0.08 1.88 1.65 92 1006.7
20260506182913 6 16 12.9 22.5 0.08 1.88 1.65 92 1006.8
20260506182150 6 42 11.3 22.5 0.10 1.88 1.65 92 1006.8
20260506181650 6 40 11.3 20.9 0.13 1.88 1.65 92 1006.8
20260506181142 7 349 14.5 24.1 0.13 1.85 1.63 92 1006.8
20260506180636 6 39 14.5 24.1 0.15 1.85 1.63 92 1006.6
20260506180356 6 25 14.5 24.1 0.15 1.85 1.63 92 1006.8
20260506175633 6 11 14.5 24.1 0.18 1.85 1.63 92 1006.7
20260506175131 6 12 12.9 25.7 0.18 1.85 1.63 92 1006.9
20260506174631 6 11 12.9 25.7 0.18 1.83 1.60 92 1006.9
20260506174131 6 31 12.9 20.9 0.20 1.83 1.60 92 1006.8
20260506173635 6 20 14.5 20.9 0.20 1.83 1.60 92 1006.9
20260506173132 6 198 14.5 29.0 0.20 1.80 1.60 92 1006.9
20260506172632 6 28 17.7 29.0 0.23 1.80 1.57 92 1007.0
20260506172140 6 25 17.7 25.7 0.23 1.75 1.52 92 1006.7
20260506172133 6 15 17.7 25.7 0.23 1.78 1.55 92 1006.7
20260506171128 6 28 17.7 24.1 0.23 1.73 1.50 91 1006.8
20260506170629 6 9 17.7 22.5 0.20 1.70 1.47 91 1007.0
20260506170127 6 23 17.7 25.7 0.23 1.70 1.47 91 1007.0
20260506165627 6 46 17.7 30.6 0.23 1.68 1.45 91 1007.2
20260506165128 6 28 16.1 30.6 0.25 1.68 1.45 91 1007.1
20260506164622 6 47 14.5 24.1 0.25 1.65 1.42 92 1007.2
20260506164116 7 20 12.9 20.9 0.25 1.63 1.40 92 1007.2
20260506163609 7 39 11.3 17.7 0.28 1.63 1.40 92 1007.3
20260506163324 7 24 11.3 22.5 0.28 1.60 1.37 92 1007.3
20260506162558 7 35 12.9 22.5 0.28 1.57 1.35 91 1007.2
20260506162051 7 38 17.7 24.1 0.28 1.55 1.32 91 1007.2
20260506161546 6 57 19.3 25.7 0.25 1.52 1.30 91 1007.0
20260506161040 7 46 19.3 27.4 0.25 1.50 1.27 91 1007.1
20260506160756 7 30 17.7 27.4 0.28 1.50 1.27 91 1007.1
20260506160031 7 26 17.7 27.4 0.28 1.47 1.24 91 1007.2
20260506155529 7 13 12.9 24.1 0.28 1.45 1.22 91 1007.5
20260506155031 7 33 9.7 19.3 0.25 1.42 1.19 91 1007.4
20260506154531 7 26 8.0 16.1 0.25 1.40 1.17 91 1007.5
20260506154259 7 19 8.0 14.5 0.23 1.35 1.14 91 1007.6
20260506153746 7 24 8.0 14.5 0.23 1.32 1.12 91 1007.7
20260506153255 7 14 11.3 19.3 0.23 1.32 1.09 91 1007.6
20260506152527 7 21 11.3 19.3 0.23 1.30 1.07 91 1007.6
20260506152027 7 26 8.0 17.7 0.23 1.27 1.04 91 1007.6
20260506151529 7 13 8.0 14.5 0.23 1.27 1.04 91 1007.8
20260506151028 7 26 6.4 12.9 0.23 1.24 1.02 91 1007.9
20260506150529 7 314 8.0 14.5 0.20 1.22 0.99 91 1008.0
20260506150021 7 11 8.0 14.5 0.20 1.19 0.97 91 1008.1
20260506145521 7 35 6.4 11.3 0.18 1.17 0.94 91 1007.9
20260506145019 7 26 4.8 9.7 0.18 1.17 0.94 91 1008.0
20260506144521 7 28 4.8 9.7 0.15 1.14 0.91 91 1008.0
20260506144020 7 15 8.0 16.1 0.15 1.12 0.89 91 1008.1
20260506143520 7 36 9.7 17.7 0.13 1.09 0.86 91 1008.1
20260506143240 7 34 9.7 17.7 0.13 1.07 0.84 91 1007.9
20260506142520 7 19 11.3 17.7 0.13 1.07 0.84 90 1008.1
20260506142243 7 28 9.7 17.7 0.13 1.04 0.81 90 1008.2
20260506141519 7 46 8.0 16.1 0.13 1.04 0.81 91 1008.2
20260506141019 7 30 8.0 14.5 0.13 1.02 0.79 91 1008.1
20260506140520 7 22 9.7 17.7 0.13 1.02 0.79 90 1008.1
20260506140019 7 22 12.9 22.5 0.10 0.99 0.76 90 1008.1
20260506135520 7 29 16.1 25.7 0.13 0.99 0.76 90 1008.0
20260506135021 7 32 14.5 25.7 0.13 0.99 0.76 90 1007.8
20260506134516 7 19 14.5 22.5 0.13 0.99 0.76 90 1008.1
20260506134017 7 19 16.1 22.5 0.13 0.97 0.74 90 1007.9
20260506133517 7 38 14.5 22.5 0.15 0.97 0.74 90 1007.9
20260506133015 8 20 11.3 19.3 0.13 0.94 0.71 90 1008.0
20260506132742 8 42 8.0 19.3 0.13 0.94 0.71 91 1007.9
20260506132017 8 24 8.0 17.7 0.13 0.91 0.69 90 1008.0
20260506131515 8 254 8.0 17.7 0.13 0.91 0.69 90 1008.0
20260506131016 8 24 9.7 24.1 0.10 0.89 0.69 90 1008.1
20260506130517 8 17 11.3 24.1 0.10 0.89 0.66 90 1008.0
20260506130011 8 13 9.7 16.1 0.13 0.89 0.66 90 1008.0
20260506125512 8 24 9.7 14.5 0.10 0.86 0.64 90 1008.2
20260506125012 8 32 8.0 14.5 0.10 0.86 0.64 90 1008.3
20260506124512 8 17 8.0 20.9 0.10 0.86 0.64 90 1008.3
20260506124455 8 22 11.3 20.9 0.08 0.84 0.61 90 1008.4
20260506123512 8 36 12.9 19.3 0.05 0.81 0.58 90 1008.2
20260506123012 8 41 12.9 19.3 0.05 0.81 0.58 90 1008.3
20260506122511 8 40 12.9 19.3 0.05 0.81 0.58 90 1008.1
20260506122012 8 227 11.3 17.7 0.03 0.79 0.56 90 1008.2
20260506121507 8 30 11.3 19.3 0.03 0.79 0.56 90 1008.1
20260506121007 9 14 12.9 20.9 0.03 0.79 0.56 90 1008.1
20260506120507 9 33 12.9 20.9 0.03 0.79 0.56 90 1008.2
20260506120009 9 15 12.9 22.5 0.00 0.76 0.53 91 1008.2
20260506115508 9 40 14.5 25.7 0.00 0.76 0.53 91 1008.1
20260506115008 9 28 17.7 33.8 0.00 0.76 0.53 91 1008.2
20260506114508 10 26 17.7 33.8 0.00 0.76 0.53 91 1007.5
20260506114008 10 11 12.9 20.9 0.03 0.76 0.53 91 1008.0
20260506113508 10 25 11.3 24.1 0.03 0.76 0.53 91 1008.0
20260506113008 10 28 12.9 24.1 0.03 0.76 0.53 91 1007.7
20260506112953 10 26 11.3 24.1 0.03 0.76 0.53 91 1007.7
20260506112456 10 15 12.9 24.1 0.03 0.76 0.53 91 1007.8
20260506111509 10 33 12.9 25.7 0.03 0.76 0.53 91 1007.7
20260506111237 10 36 14.5 25.7 0.03 0.76 0.53 91 1007.5
20260506110508 10 30 12.9 22.5 0.03 0.76 0.53 91 1007.5
20260506110007 10 17 9.7 19.3 0.03 0.76 0.53 91 1007.8
20260506105509 10 29 9.7 19.3 0.03 0.76 0.53 92 1007.6
20260506105008 10 15 9.7 16.1 0.03 0.76 0.53 92 1007.8
20260506104732 11 42 8.0 16.1 0.03 0.76 0.53 92 1007.7
20260506104009 11 0 9.7 16.1 0.00 0.74 0.53 92 1007.6
20260506103507 11 9 9.7 16.1 0.00 0.74 0.51 92 1007.5
20260506103007 11 37 8.0 14.5 0.00 0.74 0.51 92 1007.3
20260506102507 11 25 6.4 16.1 0.00 0.74 0.51 92 1007.4
20260506102010 11 25 8.0 17.7 0.00 0.74 0.51 92 1007.2
20260506101510 11 13 9.7 17.7 0.00 0.74 0.51 92 1006.9
20260506101010 11 34 8.0 17.7 0.00 0.74 0.51 92 1007.0
20260506100511 11 34 8.0 16.1 0.00 0.74 0.51 92 1006.9
20260506100010 11 28 9.7 16.1 0.00 0.74 0.51 92 1006.9
20260506095512 11 21 9.7 16.1 0.00 0.74 0.51 92 1007.0
20260506095006 11 24 11.3 19.3 0.00 0.74 0.51 92 1007.0
20260506094738 11 30 12.9 19.3 0.00 0.74 0.51 92 1007.0
20260506094225 11 30 12.9 20.9 0.00 0.74 0.51 92 1006.8
20260506093732 12 20 12.9 24.1 0.00 0.74 0.51 92 1007.0
20260506093229 12 29 9.7 24.1 0.00 0.74 0.51 92 1007.1
20260506092504 12 15 8.0 12.9 0.00 0.74 0.51 92 1007.1
20260506092004 12 25 4.8 12.9 0.00 0.74 0.51 92 1007.3
20260506091503 12 20 3.2 6.4 0.00 0.74 0.51 92 1006.9
20260506091006 12 42 4.8 6.4 0.00 0.74 0.51 92 1006.8
20260506090501 12 27 4.8 6.4 0.00 0.74 0.51 92 1007.1
20260506085959 12 15 3.2 6.4 0.00 0.74 0.51 92 1007.2
20260506085459 12 30 3.2 4.8 0.00 0.74 0.51 92 1007.2
20260506085223 12 304 1.6 4.8 0.00 0.74 0.51 92 1007.4
20260506084459 12 248 1.6 3.2 0.00 0.74 0.51 92 1007.3
20260506084000 12 247 0.0 0.0 0.00 0.74 0.51 92 1007.5
20260506083723 12 246 0.0 0.0 0.00 0.74 0.51 92 1007.3
20260506083445 12 246 0.0 0.0 0.00 0.74 0.51 91 1007.2
20260506082501 12 247 0.0 0.0 0.00 0.74 0.51 91 1007.1
20260506081957 12 246 0.0 0.0 0.00 0.74 0.51 91 1007.2
20260506081456 12 246 0.0 0.0 0.00 0.74 0.51 91 1007.4
20260506081223 12 245 0.0 0.0 0.00 0.74 0.51 91 1007.4
20260506080712 12 245 0.0 0.0 0.00 0.74 0.51 91 1007.6
20260506073453 13 245 0.0 0.0 0.00 0.74 0.51 91 1007.7
20260506072951 13 245 0.0 0.0 0.00 0.74 0.51 91 1007.7
20260506072453 13 245 0.0 0.0 0.00 0.74 0.51 91 1007.6
20260506071951 13 245 0.0 0.0 0.00 0.74 0.51 91 1007.5
20260506071453 13 245 0.0 0.0 0.00 0.74 0.51 91 1007.5
20260506070952 13 245 0.0 0.0 0.00 0.74 0.51 91 1007.4
20260506070712 13 245 0.0 0.0 0.00 0.74 0.51 91 1007.6
20260506062447 13 245 0.0 0.0 0.00 0.74 0.51 90 1007.8
20260506061949 13 245 0.0 0.0 0.00 0.74 0.51 90 1007.8
20260506061448 13 245 0.0 0.0 0.00 0.74 0.51 90 1007.7
20260506060948 13 245 0.0 0.0 0.00 0.74 0.51 90 1007.8
20260506060447 13 246 0.0 0.0 0.00 0.74 0.51 90 1007.8
20260506050945 14 246 1.6 3.2 0.51 0.74 0.51 87 1008.2
20260506050443 14 246 0.0 3.2 0.51 0.74 0.51 86 1008.2
20260506044705 15 324 0.0 3.2 0.38 0.61 0.38 83 1007.9
20260506044206 15 323 0.0 3.2 0.33 0.56 0.33 83 1008.1
20260506043441 15 325 0.0 0.0 0.18 0.41 0.20 82 1008.3
20260506042943 16 325 0.0 1.6 0.10 0.33 0.10 82 1008.1
20260506042436 16 325 0.0 1.6 0.08 0.30 0.08 81 1007.9
20260506041930 16 324 0.0 0.0 0.00 0.23 0.00 80 1007.7
20260506041424 16 325 0.0 1.6 0.00 0.23 0.00 79 1007.6
20260506040919 16 325 0.0 1.6 0.00 0.23 0.00 79 1007.6
20260506040413 16 325 0.0 3.2 0.00 0.23 0.00 79 1007.6
20260506035906 16 325 0.0 3.2 0.00 0.23 0.23 79 1007.7
20260506035402 16 327 0.0 1.6 0.00 0.23 0.23 79 1007.7
20260506034900 16 325 0.0 3.2 0.00 0.23 0.23 79 1007.7
20260506034400 16 325 1.6 14.5 0.00 0.23 0.23 79 1007.7
20260506033901 16 330 3.2 14.5 0.00 0.23 0.23 79 1007.6
20260506033358 16 323 1.6 8.0 0.00 0.23 0.23 80 1007.7
20260506032858 16 173 1.6 8.0 0.00 0.23 0.23 80 1007.6
20260506032625 16 108 3.2 6.4 0.00 0.23 0.23 80 1007.4
20260506031858 16 343 3.2 6.4 0.00 0.23 0.23 80 1007.3
20260506031357 16 246 1.6 3.2 0.00 0.23 0.23 80 1007.3